[[{"header":{"parameterUnit":"m.s-1","parameterCategory":1,"la1":30.2991,"la2":30.254,"lo1":-89.0895,"lo2":-89.0444,"dy":0.0017,"dx":0.0017,"nx":28,"ny":28,"refTime":"2024-10-10T09:00:00:Z","depth":0,"parameterNumber":2,"parameterNumberName":"U-component_of_WINDS"},"data":[0,0,0,0,0,0,0,0,0,0,0,0,0,0,0,0,0,0,0,0,0,0,0,0,0,0,0,0,0,0,0,0,0,0,0,0,0,0,0,0,0,0,0,0,0,0,0,0,0,0,0,0,0,0,0,0,0,0,-0.4825,-0.4825,0,-0.4822,-0.4822,-0.4822,-0.4816,-0.4816,-0.4816,-0.4816,-0.4812,-0.4812,-0.4812,0,0,0,0,0,0,0,0,0,0,0,0,0,-0.4827,-0.4827,-0.4825,-0.4825,-0.4825,-0.4822,-0.4822,-0.4822,-0.4816,-0.4816,-0.4816,-0.4816,-0.4812,-0.4812,-0.4812,0,0,0,0,0,0,0,0,0,0,0,0,0,-0.4825,-0.4827,-0.4825,-0.4822,-0.4822,-0.4822,-0.4822,-0.4822,-0.4816,-0.4816,-0.4816,-0.4816,-0.4812,-0.4812,-0.4812,-0.4816,0,0,-0.4812,-0.4812,0,0,0,0,0,0,0,0,-0.4825,-0.4825,-0.4823,-0.4822,-0.4822,-0.4819,-0.4821,-0.482,-0.4816,-0.4818,-0.4816,-0.4816,-0.4815,-0.4815,-0.4814,-0.4815,-0.4815,-0.4812,-0.4812,-0.4812,-0.4812,0,0,0,0,0,0,0,-0.4825,-0.4825,-0.4824,-0.4823,-0.4822,-0.4821,-0.482,-0.4821,-0.4818,-0.4818,-0.4818,-0.4817,-0.4815,-0.4814,-0.4814,-0.4815,-0.4812,-0.4812,-0.4812,-0.4812,-0.4818,-0.4818,0,0,0,0,0,0,-0.4826,-0.4825,-0.4824,-0.4824,-0.4823,-0.4821,-0.482,-0.482,-0.4817,-0.4817,-0.4818,-0.4817,-0.4814,-0.4814,-0.4814,-0.4817,-0.4812,-0.4812,-0.4812,-0.4818,-0.4818,-0.4818,0,0,0,0,0,0,-0.4826,-0.4826,-0.4824,-0.4824,-0.4824,-0.4821,-0.4821,-0.482,-0.482,-0.4817,-0.4816,-0.4818,-0.4814,-0.4814,-0.4815,-0.4817,-0.4812,-0.4812,-0.4818,-0.4818,-0.4818,-0.4824,0,0,0,0,0,0,-0.4826,-0.4826,-0.4827,-0.4824,-0.4824,-0.4826,-0.4821,-0.482,-0.482,-0.482,-0.4817,-0.4817,-0.4814,-0.4815,-0.4815,-0.4817,-0.4812,-0.4818,-0.4818,-0.4818,-0.4824,-0.4825,-0.4825,0,0,0,0,0,-0.4826,-0.4829,-0.4827,-0.4827,-0.4826,-0.4826,-0.4825,-0.4823,-0.482,-0.4821,-0.4819,-0.4817,-0.4817,-0.4815,-0.4815,-0.4817,-0.4818,-0.4818,-0.4818,-0.4824,-0.4825,-0.4825,0,0,0,0,0,0,-0.4832,-0.4829,-0.4827,-0.4829,-0.4828,-0.4825,-0.4826,-0.4824,-0.4823,-0.4823,-0.4819,-0.4818,-0.482,-0.4819,-0.4817,-0.482,-0.4817,-0.4817,-0.4821,-0.4822,-0.4822,-0.4823,-0.4813,0,0,0,0,0,-0.4834,-0.4834,-0.4831,-0.4833,-0.4833,-0.483,-0.483,-0.4827,-0.4826,-0.4825,-0.4823,-0.4822,-0.4822,-0.4821,-0.4821,-0.4823,-0.4823,-0.4825,-0.4825,-0.4826,-0.4827,-0.4827,-0.4828,-0.4819,-0.4819,-0.4819,0,0,-0.4838,-0.4836,-0.4836,-0.4835,-0.4833,-0.4834,-0.4829,-0.483,-0.483,-0.4825,-0.4826,-0.4825,-0.4823,-0.4824,-0.4825,-0.4823,-0.4829,-0.4826,-0.4827,-0.4827,-0.4828,-0.4829,-0.4829,-0.482,-0.482,-0.482,0,0,-0.4844,-0.4843,-0.4844,-0.4843,-0.4841,-0.4839,-0.4839,-0.4836,-0.4835,-0.4836,-0.4832,-0.4832,-0.4832,-0.483,-0.483,-0.4835,-0.4832,-0.4835,-0.4839,-0.484,-0.484,-0.4841,-0.4843,-0.4844,-0.4835,-0.4835,-0.4835,0,-0.4849,-0.4849,-0.4846,-0.4846,-0.4846,-0.4841,-0.4843,-0.4842,-0.484,-0.4839,-0.4837,-0.4836,-0.4835,-0.4836,-0.4837,-0.4837,-0.4837,-0.4835,-0.4841,-0.4841,-0.4842,-0.4843,-0.4844,-0.4836,-0.4836,-0.4835,-0.4835,0,-0.4855,-0.4856,-0.4857,-0.4855,-0.4855,-0.4856,-0.4852,-0.4852,-0.4849,-0.4847,-0.4848,-0.4845,-0.4844,-0.4844,-0.4842,-0.4845,-0.4844,-0.4841,-0.4838,-0.4843,-0.4845,-0.4845,-0.4836,-0.4836,-0.4836,-0.4836,0,0,-0.4867,-0.4862,-0.4863,-0.4862,-0.4859,-0.4859,-0.4859,-0.4858,-0.4858,-0.4856,-0.4857,-0.4856,-0.4853,-0.4853,-0.485,-0.4851,-0.4855,-0.4848,-0.4848,-0.4849,-0.4858,-0.486,-0.4861,-0.4853,-0.4853,-0.4853,-0.4858,0,-0.4873,-0.4874,-0.4871,-0.4873,-0.4873,-0.4868,-0.4868,-0.4866,-0.4864,-0.4864,-0.4861,-0.4861,-0.4857,-0.4856,-0.4857,-0.4854,-0.4856,-0.4854,-0.4853,-0.4853,-0.4854,-0.4862,-0.4864,-0.4869,-0.4859,-0.4859,-0.4859,0,-0.4881,-0.488,-0.4882,-0.4878,-0.4878,-0.4879,-0.4877,-0.4876,-0.4874,-0.4872,-0.4871,-0.4867,-0.4867,-0.4864,-0.4864,-0.4862,-0.4861,-0.486,-0.486,-0.486,-0.4857,-0.4862,-0.4871,-0.4872,-0.486,-0.486,-0.4859,0,-0.489,-0.4888,-0.4889,-0.4888,-0.4884,-0.4884,-0.4883,-0.488,-0.4879,-0.4877,-0.4877,-0.4875,-0.4874,-0.4873,-0.4869,-0.4867,-0.4869,-0.4866,-0.4868,-0.4868,-0.4869,-0.4869,-0.4878,-0.4868,-0.4868,-0.4868,-0.4868,0,-0.4898,-0.4899,-0.4893,-0.4894,-0.4895,-0.489,-0.4891,-0.4889,-0.4887,-0.4886,-0.4882,-0.4882,-0.4876,-0.4876,-0.4873,-0.4873,-0.4872,-0.4871,-0.487,-0.4872,-0.4872,-0.4872,-0.4871,-0.4868,-0.4868,-0.4868,-0.4868,0,-0.4908,-0.4904,-0.4904,-0.49,-0.4899,-0.49,-0.4896,-0.4896,-0.4893,-0.4893,-0.4893,-0.4888,-0.4887,-0.4883,-0.488,-0.4878,-0.488,-0.4878,-0.4881,-0.488,-0.4883,-0.4883,-0.4892,-0.4893,-0.4882,-0.4882,-0.4882,0,-0.4913,-0.4914,-0.491,-0.4909,-0.4908,-0.4907,-0.4906,-0.4901,-0.49,-0.4897,-0.4898,-0.4896,-0.4894,-0.4893,-0.4889,-0.4887,-0.4885,-0.4889,-0.4885,-0.4886,-0.4886,-0.4886,-0.4886,-0.489,-0.489,-0.489,-0.489,0,-0.4924,-0.4921,-0.492,-0.4918,-0.4917,-0.4916,-0.4913,-0.4913,-0.4908,-0.4907,-0.4906,-0.4904,-0.4902,-0.49,-0.4897,-0.4895,-0.4892,-0.4891,-0.4891,-0.4893,-0.4895,-0.4894,-0.4883,-0.4891,-0.4891,-0.4891,-0.4891,-0.4891,-0.4932,-0.4933,-0.4929,-0.4928,-0.4926,-0.4924,-0.4924,-0.492,-0.4919,-0.4917,-0.4914,-0.4913,-0.4909,-0.4905,-0.4903,-0.4902,-0.49,-0.4901,-0.4901,-0.4901,-0.4902,-0.4895,-0.4901,-0.4901,-0.4901,-0.4901,-0.4901,0,-0.4943,-0.494,-0.4939,-0.4936,-0.4935,-0.4931,-0.4928,-0.4928,-0.4927,-0.4924,-0.4922,-0.492,-0.4918,-0.4914,-0.4912,-0.4911,-0.491,-0.4911,-0.4911,-0.4911,-0.4904,-0.4904,-0.4912,-0.4912,-0.4912,-0.4912,-0.4912,-0.4912,-0.4948,-0.4949,-0.4946,-0.4945,-0.4942,-0.4941,-0.494,-0.4938,-0.4935,-0.4933,-0.4932,-0.4929,-0.4925,-0.4922,-0.492,-0.4919,-0.4918,-0.492,-0.4919,-0.4912,-0.4911,-0.491,-0.491,-0.492,-0.492,-0.4926,-0.4926,-0.4926]},{"header":{"parameterUnit":"m.s-1","parameterCategory":1,"la1":30.2991,"la2":30.254,"lo1":-89.0895,"lo2":-89.0444,"dy":0.0017,"dx":0.0017,"nx":28,"ny":28,"refTime":"2024-10-10T09:00:00:Z","depth":0,"parameterNumber":3,"parameterNumberName":"V-component_of_WINDS"},"data":[0,0,0,0,0,0,0,0,0,0,0,0,0,0,0,0,0,0,0,0,0,0,0,0,0,0,0,0,0,0,0,0,0,0,0,0,0,0,0,0,0,0,0,0,0,0,0,0,0,0,0,0,0,0,0,0,0,0,-4.137,-4.137,0,-4.1433,-4.1433,-4.1434,-4.1401,-4.1399,-4.1397,-4.1396,-4.1455,-4.1459,-4.1462,0,0,0,0,0,0,0,0,0,0,0,0,0,-4.1217,-4.122,-4.137,-4.137,-4.1371,-4.1432,-4.1433,-4.1434,-4.1401,-4.1399,-4.1397,-4.1395,-4.1454,-4.1458,-4.1462,0,0,0,0,0,0,0,0,0,0,0,0,0,-4.1282,-4.1221,-4.1369,-4.1362,-4.1362,-4.1432,-4.1433,-4.1434,-4.1401,-4.1399,-4.1396,-4.1394,-4.1453,-4.1458,-4.1462,-4.1542,0,0,-4.1477,-4.1479,0,0,0,0,0,0,0,0,-4.1278,-4.1288,-4.1362,-4.1363,-4.1363,-4.1406,-4.1401,-4.147,-4.1402,-4.1386,-4.1396,-4.1393,-4.1441,-4.1446,-4.1464,-4.1545,-4.1547,-4.1477,-4.148,-4.1482,-4.1484,0,0,0,0,0,0,0,-4.1274,-4.1285,-4.1394,-4.1363,-4.1364,-4.1354,-4.1361,-4.1414,-4.1427,-4.1387,-4.1385,-4.1393,-4.144,-4.1459,-4.1465,-4.1548,-4.1477,-4.1481,-4.1484,-4.1486,-4.17,-4.1702,0,0,0,0,0,0,-4.127,-4.1281,-4.1392,-4.1396,-4.1314,-4.1359,-4.1366,-4.1395,-4.1426,-4.1429,-4.1395,-4.1392,-4.1452,-4.1459,-4.1467,-4.1563,-4.1482,-4.1487,-4.1489,-4.1697,-4.17,-4.1703,0,0,0,0,0,0,-4.1267,-4.1281,-4.139,-4.1338,-4.1351,-4.1365,-4.1397,-4.1397,-4.1416,-4.1432,-4.1434,-4.1413,-4.1451,-4.146,-4.1524,-4.1565,-4.1489,-4.1493,-4.1693,-4.1698,-4.1702,-4.1757,0,0,0,0,0,0,-4.1263,-4.128,-4.1311,-4.1339,-4.1354,-4.1448,-4.1399,-4.14,-4.1425,-4.142,-4.1449,-4.1451,-4.1449,-4.1517,-4.1529,-4.157,-4.1497,-4.169,-4.1695,-4.17,-4.1751,-4.1762,-4.1771,0,0,0,0,0,-4.1258,-4.1322,-4.1313,-4.1326,-4.1394,-4.145,-4.1458,-4.1457,-4.1428,-4.1459,-4.147,-4.145,-4.1559,-4.1524,-4.1537,-4.158,-4.1687,-4.1694,-4.17,-4.1747,-4.176,-4.1771,0,0,0,0,0,0,-4.1296,-4.1326,-4.1315,-4.1391,-4.1419,-4.1444,-4.1483,-4.1471,-4.1505,-4.1499,-4.1494,-4.1501,-4.1568,-4.158,-4.1541,-4.166,-4.1618,-4.1628,-4.1649,-4.1662,-4.1672,-4.1668,-4.1501,0,0,0,0,0,-4.1314,-4.1358,-4.1381,-4.1446,-4.146,-4.147,-4.1494,-4.1491,-4.1518,-4.1529,-4.1544,-4.157,-4.161,-4.1637,-4.1674,-4.1752,-4.1759,-4.1788,-4.1799,-4.1807,-4.1815,-4.1859,-4.1873,-4.1724,-4.1724,-4.1724,0,0,-4.135,-4.1372,-4.14,-4.1454,-4.1475,-4.1521,-4.1479,-4.1529,-4.1562,-4.1536,-4.1598,-4.161,-4.1639,-4.1711,-4.1744,-4.1724,-4.1858,-4.1815,-4.1821,-4.1825,-4.1867,-4.1881,-4.1893,-4.1728,-4.1728,-4.1727,0,0,-4.144,-4.1461,-4.1518,-4.154,-4.1573,-4.1579,-4.1593,-4.1621,-4.1629,-4.1692,-4.1673,-4.1712,-4.1781,-4.1803,-4.1823,-4.1923,-4.1907,-4.1935,-4.1989,-4.2031,-4.2043,-4.2053,-4.209,-4.2104,-4.1943,-4.1943,-4.1944,0,-4.148,-4.155,-4.1548,-4.16,-4.1625,-4.1605,-4.1663,-4.1684,-4.1726,-4.1744,-4.1721,-4.1808,-4.1826,-4.1904,-4.1929,-4.1945,-4.1961,-4.1932,-4.2042,-4.2052,-4.2062,-4.2097,-4.2111,-4.1947,-4.1946,-4.1946,-4.1946,0,-4.1599,-4.1647,-4.1689,-4.1734,-4.1763,-4.1817,-4.1823,-4.1853,-4.1847,-4.1856,-4.192,-4.1941,-4.1984,-4.2002,-4.1995,-4.2079,-4.2066,-4.2042,-4.2001,-4.2079,-4.2112,-4.2126,-4.1952,-4.195,-4.1949,-4.1949,0,0,-4.1714,-4.1759,-4.1774,-4.1795,-4.183,-4.1867,-4.1921,-4.1964,-4.199,-4.202,-4.2065,-4.2125,-4.2104,-4.2127,-4.2123,-4.2161,-4.224,-4.2133,-4.2133,-4.2153,-4.2335,-4.2353,-4.2369,-4.2229,-4.2232,-4.2234,-4.2333,0,-4.1807,-4.1903,-4.1904,-4.1992,-4.2037,-4.2019,-4.2066,-4.2092,-4.2102,-4.214,-4.215,-4.2193,-4.2162,-4.2176,-4.2212,-4.2223,-4.2277,-4.2216,-4.2271,-4.2273,-4.2266,-4.2386,-4.2405,-4.2498,-4.2346,-4.2348,-4.235,0,-4.1929,-4.1966,-4.2059,-4.209,-4.2109,-4.2151,-4.2192,-4.2229,-4.2259,-4.2263,-4.229,-4.2281,-4.2335,-4.2291,-4.2366,-4.2324,-4.2347,-4.2356,-4.2359,-4.2365,-4.2317,-4.2396,-4.2527,-4.2542,-4.237,-4.2368,-4.2367,0,-4.2006,-4.2078,-4.2144,-4.2162,-4.2199,-4.223,-4.2246,-4.2273,-4.23,-4.2335,-4.2352,-4.2392,-4.2414,-4.2445,-4.2447,-4.2415,-4.2522,-4.2479,-4.2527,-4.2528,-4.2551,-4.255,-4.2689,-4.2564,-4.2564,-4.2564,-4.2563,0,-4.211,-4.2168,-4.2179,-4.222,-4.2284,-4.2284,-4.2348,-4.2361,-4.2386,-4.2429,-4.2414,-4.2454,-4.2454,-4.2494,-4.2495,-4.2557,-4.2567,-4.2571,-4.2571,-4.2574,-4.2573,-4.2589,-4.2583,-4.2567,-4.2566,-4.2566,-4.2565,0,-4.2207,-4.2217,-4.2288,-4.2318,-4.2327,-4.2373,-4.2398,-4.2437,-4.2445,-4.2499,-4.2511,-4.2524,-4.2571,-4.2576,-4.2629,-4.263,-4.2706,-4.2698,-4.2697,-4.2696,-4.2745,-4.2741,-4.29,-4.2921,-4.2781,-4.2782,-4.2783,0,-4.2274,-4.2318,-4.2354,-4.2383,-4.2402,-4.2447,-4.2475,-4.2477,-4.2506,-4.2545,-4.2578,-4.2624,-4.2661,-4.2737,-4.275,-4.2791,-4.2785,-4.2838,-4.2791,-4.2792,-4.2787,-4.2785,-4.279,-4.2847,-4.2849,-4.285,-4.2851,0,-4.2392,-4.2395,-4.2437,-4.2481,-4.2516,-4.255,-4.2582,-4.2605,-4.2611,-4.2645,-4.2694,-4.2722,-4.2779,-4.2824,-4.2865,-4.2881,-4.2867,-4.2866,-4.2879,-4.2883,-4.2881,-4.2884,-4.2723,-4.2862,-4.2861,-4.286,-4.286,-4.2859,-4.2476,-4.2516,-4.2549,-4.2596,-4.2621,-4.2652,-4.269,-4.2704,-4.2746,-4.2793,-4.2791,-4.2845,-4.2874,-4.2928,-4.2947,-4.2989,-4.2971,-4.299,-4.2996,-4.3001,-4.3007,-4.2874,-4.2996,-4.2996,-4.2995,-4.2995,-4.2995,0,-4.2595,-4.2616,-4.2659,-4.2706,-4.2744,-4.2729,-4.2764,-4.2796,-4.2845,-4.2874,-4.2912,-4.2968,-4.3013,-4.3031,-4.3074,-4.3105,-4.3099,-4.3116,-4.3114,-4.3118,-4.3019,-4.3004,-4.312,-4.312,-4.312,-4.312,-4.3119,-4.3119,-4.2661,-4.2729,-4.2736,-4.2815,-4.2834,-4.2889,-4.2911,-4.2939,-4.2963,-4.3028,-4.3066,-4.3078,-4.3102,-4.3148,-4.3188,-4.3192,-4.3209,-4.3229,-4.323,-4.3138,-4.3125,-4.3113,-4.3099,-4.3233,-4.3233,-4.3326,-4.3327,-4.3328]}]]